Regional Weather Roundup
Issued by NWS Cleveland, OH

Home | Current Version | Previous Version | Graphics & Text | Print | Product List | Glossary On
Versions: 1 2 3 4 5 6 7 8 9 10 11 12 13 14 15 16 17 18 19 20 21 22 23 24 25 26 27 28 29 30 31 32 33 34 35 36 37 38 39 40 41 42 43 44 45 46 47 48 49 50
000
ASUS41 KCLE 201402
RWRCLE
OHIO REGIONAL WEATHER ROUNDUP
NATIONAL WEATHER SERVICE CLEVELAND, OH
1000 AM EDT FRI APR 20 2018

NOTE: "FAIR" INDICATES FEW OR NO CLOUDS BELOW 12,000 FEET WITH NO
SIGNIFICANT WEATHER AND/OR OBSTRUCTIONS TO VISIBILITY.

OHZ001>008-015>018-024>027-034-035-043-044-201500-
   NORTHWEST OHIO

CITY           SKY/WX    TMP DP  RH WIND       PRES   REMARKS
DEFIANCE       FAIR      43  24  47 NE3       30.49S
FINDLAY        FAIR      44  22  41 NE5       30.47S
TOLEDO EXPRESS FAIR      44  24  45 N5        30.48R
TOLEDO EXEC    FAIR      43  22  43 NE5       30.48S
LIMA           FAIR      41  26  55 N8        30.47S
$$

OHZ009>014-019>023-028>033-038-089-201500-
   NORTHEAST OHIO

CITY           SKY/WX    TMP DP  RH WIND       PRES   REMARKS
CLE-HOPKINS    FAIR      42  26  53 N10       30.48R
CLE-LAKEFRONT  FAIR      40  30  67 N12       30.45R
CUY CO. ARPT   SUNNY     41  30  65 N12       30.45R
LORAIN-ELYRIA  FAIR      41  24  51 N12       30.46R
ASHTABULA      FAIR      38  24  57 NW13      30.42R
AKRON-CANTON   FAIR      41  26  55 N9        30.42R
WOOSTER        FAIR      41  28  60 NW9       30.44R
MANSFIELD      FAIR      40  29  64 NW8       30.45R
YOUNGSTOWN     FAIR      39  25  57 NW13G18   30.40R
$$

OHZ042-051>053-060>062-070>072-077>081-201500-
  SOUTHWEST OHIO

CITY           SKY/WX    TMP DP  RH WIND       PRES   REMARKS
CINC-COVINGTON FAIR      45  29  53 E6        30.47R
CINC-LUNKEN    FAIR      45  32  60 E5        30.50R
HAMILTON       FAIR      45  30  55 CALM      30.50S
DAYTON         FAIR      42  27  55 NE8       30.49R
WRIGHT-PAT AFB FAIR      42  29  62 NE6       30.48S
DAYTON GENERAL FAIR      44  30  57 N3        30.47R
WILMINGTON     FAIR      49  30  48 NW5       30.47R
$$

OHZ036-037-039>041-045>050-054>059-063>069-073>076-082>088-201500-
  CENTRAL AND SOUTHEAST OHIO

CITY           SKY/WX    TMP DP  RH WIND       PRES   REMARKS
COLUMBUS       FAIR      45  25  45 NW8       30.47R
OSU AIRPORT    FAIR      43  27  53 NW8       30.47R
BOLTON FIELD   SUNNY     43  28  56 NW8       30.47R
RICKENBACK AFB NOT AVBL
NEWARK         FAIR      44  27  51 NW8       30.46R
MARION         FAIR      40  25  55 N8        30.47R
LANCASTER      FAIR      44  27  51 N10       30.48R
ZANESVILLE     FAIR      43  24  47 NW9       30.45R
NEW PHILLY     NOT AVBL
$$




USA.gov is the U.S. government's official web portal to all federal, state and local government web resources and services.